Location: ???? ?????
(30.0052°N, 31.2891°E)
Time: 02:50:53
(UTC+00:00)

DIWATA 2B (PO-101) - Visible Passes

Search period start: 06 November 2024 00:00
Search period end: 16 November 2024 00:00
Orbit: 572 x 583 km, 98.1° (Epoch: 05 November)

Date Brightness Start Highest point End Pass type
(mag) Time Alt. Az. Time Alt. Az. Time Alt. Az.
06 Nov ? 02:13:39 10° S 02:14:01 12° S 02:14:01 12° S visible
06 Nov ? 15:36:24 10° NNW 15:39:11 18° WNW 15:41:56 10° WSW visible
07 Nov ? 02:17:52 10° S 02:18:14 12° S 02:18:14 12° S visible
07 Nov ? 15:40:49 10° NNW 15:43:19 16° WNW 15:45:48 10° WSW visible
08 Nov ? 02:22:05 10° S 02:22:26 12° S 02:22:26 12° S visible
08 Nov ? 15:45:15 10° NW 15:47:27 14° WNW 15:49:37 10° WSW visible
09 Nov ? 02:26:19 10° S 02:26:37 12° S 02:26:37 12° S visible
09 Nov ? 15:49:44 10° NW 15:51:33 13° WNW 15:53:21 10° W visible
10 Nov ? 02:30:33 10° SSW 02:30:47 11° SSW 02:30:47 11° SSW visible
10 Nov ? 15:54:22 10° NW 15:55:38 11° WNW 15:56:55 10° W visible
11 Nov ? 02:34:47 10° SSW 02:34:57 11° SSW 02:34:57 11° SSW visible
12 Nov ? 02:39:01 10° SSW 02:39:06 10° SSW 02:39:06 10° SSW visible
